Flag for Canada Weather past 2 weeks in Shawinigan, Quebec, Canada

Now
41 °F

Quite cool.


Feels Like: 37 °F
Forecast: 39 / 53 °F
Wind: 7 mph from North

Location: Shawinigan CS

Current Time: Oct 22, 2014 at 10:09:35 AM

Latest Report: Oct 22, 2014 at 9:00 AM


Visibility: N/A

Pressure: 30.35 "Hg

Humidity: 69%

Dew point: 32 °F

Location of ShawiniganLocation

Historic Weather in Shawinigan — Graph

°F

Shawinigan temperature yesterday

Maximum temperature yesterday: 47 °F (at 4:00 PM)
Minimum temperature yesterday: 37 °F (at 7:00 AM)
Average temperature yesterday: 42 °F

Past Weeks' High & Low Weather Summary

 TemperatureHumidityPressure
High71 °F (Oct 14, 4:00 PM)100% (Oct 8, 7:00 AM)30.35 "Hg (Oct 8, 7:00 AM)
Low31 °F (Oct 13, 6:00 AM)39% (Oct 12, 4:00 PM)29.41 "Hg (Oct 17, 2:00 PM)
Average49 °F78%29.89 "Hg
* Reported Oct 7 9:00 AM — Oct 22 9:00 AM, Shawinigan, Weather by CustomWeather, © 2014

Note: Actual official high and low records may vary slightly from our data, if they occured in-between our weather recording intervals... More about our weather records

Advertising

Shawinigan weather history for previous 24 hours

 ConditionsComfort  
Time TempWeatherWind HumidityBarometerVisibility
9:00 AM
Oct 22
41 °FQuite cool.7 mph69%30.35 "HgN/A
8:00 AM41 °FQuite cool.5 mph74%30.34 "HgN/A
7:00 AM40 °FChilly.5 mph69%30.31 "HgN/A
6:00 AM40 °FQuite cool.6 mph67%30.30 "HgN/A
5:00 AM42 °FQuite cool.8 mph63%30.28 "HgN/A
4:00 AM42 °FQuite cool.8 mph61%30.27 "HgN/A
3:00 AM42 °FQuite cool.8 mph62%30.25 "HgN/A
2:00 AM42 °FQuite cool.7 mph62%30.26 "HgN/A
1:00 AM42 °FQuite cool.9 mph62%30.26 "HgN/A
12:00 AM41 °FQuite cool.5 mph68%30.26 "HgN/A
11:00 PM
Oct 21
42 °FQuite cool.5 mph68%30.24 "HgN/A
10:00 PM42 °FQuite cool.3 mph66%30.22 "HgN/A
9:00 PM44 °FQuite cool.6 mph64%30.20 "HgN/A
8:00 PM45 °FQuite cool.7 mph64%30.18 "HgN/A
7:00 PM44 °FQuite cool.6 mph67%30.17 "HgN/A
6:00 PM46 °FCool.5 mph63%30.14 "HgN/A
5:00 PM47 °FCool.6 mph53%30.13 "HgN/A
4:00 PM47 °FCool.8 mph40%30.11 "HgN/A
3:00 PM47 °FCool.6 mph43%30.10 "HgN/A
2:00 PM46 °FCool.7 mph47%30.09 "HgN/A
1:00 PM46 °FCool.7 mph49%30.09 "HgN/A
12:00 PM46 °FCool.8 mph50%30.09 "HgN/A
11:00 AM43 °FQuite cool.9 mph58%30.09 "HgN/A
10:00 AM40 °FChilly.7 mph67%30.09 "HgN/A
Weather by CustomWeather, © 2014

See weather overviewHow to use our weather pages